DL1NER Weather Reports


time (UTC)temp
C
wind
direction
speed
KPH
gust
KPH
rain 1hr
cm
rain 24hr
cm
rain mn
cm
humidity
%
barometer
mb
20260507215017 9 257 0.0 0.0 0.00 0.23 0.23 81 1017.3
20260507214009 9 257 0.0 4.8 0.00 0.23 0.23 80 1017.3
20260507213009 9 257 3.2 4.8 0.00 0.23 0.23 80 1017.2
20260507212009 9 258 0.0 3.2 0.00 0.23 0.23 78 1017.1
20260507211009 9 258 0.0 4.8 0.00 0.23 0.23 79 1017.1
20260507210009 9 258 1.6 4.8 0.00 0.23 0.23 78 1017.2
20260507205008 10 258 1.6 4.8 0.00 0.23 0.23 78 1017.1
20260507204008 10 258 1.6 4.8 0.00 0.23 0.23 77 1017.1
20260507203008 10 258 1.6 4.8 0.00 0.23 0.23 77 1016.9
20260507202013 10 258 1.6 4.8 0.00 0.23 0.23 77 1016.9
20260507201013 10 258 1.6 4.8 0.00 0.23 0.23 77 1016.9
20260507200013 10 258 1.6 6.4 0.00 0.23 0.23 77 1016.8
20260507195013 10 261 1.6 4.8 0.00 0.23 0.23 77 1016.8
20260507194013 10 261 0.0 4.8 0.00 0.23 0.23 77 1016.7
20260507193013 10 261 1.6 4.8 0.00 0.23 0.23 77 1016.7
20260507192013 10 261 1.6 4.8 0.00 0.23 0.23 76 1016.7
20260507191013 10 261 1.6 9.7 0.00 0.23 0.23 76 1016.5
20260507190013 10 255 1.6 4.8 0.00 0.23 0.23 76 1016.3
20260507185013 10 255 1.6 11.3 0.00 0.23 0.23 76 1016.3
20260507184013 10 257 3.2 6.4 0.00 0.23 0.23 75 1016.3
20260507183013 10 251 1.6 6.4 0.00 0.23 0.23 76 1016.2
20260507182013 10 250 1.6 6.4 0.00 0.23 0.23 75 1016.0
20260507181013 10 250 3.2 6.4 0.00 0.23 0.23 75 1015.8
20260507180012 10 250 4.8 11.3 0.00 0.23 0.23 74 1015.9
20260507175013 11 253 4.8 11.3 0.00 0.23 0.23 74 1015.9
20260507174013 11 288 4.8 11.3 0.00 0.23 0.23 73 1015.9
20260507173013 11 249 6.4 14.5 0.00 0.23 0.23 73 1015.7
20260507172013 11 251 8.0 14.5 0.00 0.23 0.23 72 1015.7
20260507171012 11 272 6.4 16.1 0.00 0.23 0.23 72 1015.6
20260507170012 11 266 4.8 14.5 0.00 0.23 0.23 72 1015.6
20260507165012 11 265 4.8 11.3 0.00 0.23 0.23 71 1015.6
20260507164013 11 241 6.4 17.7 0.00 0.23 0.23 72 1015.6
20260507163012 11 252 6.4 14.5 0.00 0.23 0.23 71 1015.5
20260507162012 11 280 6.4 14.5 0.00 0.23 0.23 70 1015.5
20260507161012 11 268 6.4 14.5 0.00 0.23 0.23 71 1015.3
20260507160012 11 243 8.0 17.7 0.00 0.23 0.23 69 1015.3
20260507155012 12 263 8.0 20.9 0.00 0.23 0.23 69 1015.2
20260507154012 12 240 4.8 16.1 0.00 0.23 0.23 71 1015.1
20260507153012 12 236 6.4 16.1 0.00 0.23 0.23 71 1015.0
20260507152012 12 271 4.8 16.1 0.00 0.23 0.23 70 1015.0
20260507151012 11 242 3.2 12.9 0.00 0.23 0.23 73 1015.1
20260507150012 11 276 6.4 17.7 0.00 0.23 0.23 71 1015.0
20260507145012 11 267 8.0 14.5 0.00 0.23 0.23 72 1015.1
20260507144012 11 223 6.4 16.1 0.00 0.23 0.23 72 1015.0
20260507143012 12 261 9.7 20.9 0.00 0.23 0.23 70 1015.1
20260507142012 12 242 6.4 19.3 0.00 0.23 0.23 72 1015.0
20260507141012 12 225 4.8 19.3 0.00 0.23 0.23 73 1015.1
20260507140011 11 256 11.3 17.7 0.00 0.23 0.23 71 1015.0
20260507135012 12 245 8.0 20.9 0.00 0.23 0.23 74 1015.0
20260507134012 11 232 4.8 12.9 0.00 0.23 0.23 77 1015.0
20260507133011 11 213 6.4 14.5 0.00 0.23 0.23 80 1015.0
20260507132011 10 250 6.4 14.5 0.00 0.23 0.23 79 1015.0
20260507131011 10 264 9.7 19.3 0.00 0.23 0.23 77 1015.1
20260507130011 10 259 8.0 19.3 0.00 0.23 0.23 76 1014.9
20260507125012 10 233 8.0 19.3 0.00 0.23 0.23 75 1014.9
20260507124011 11 238 11.3 24.1 0.00 0.23 0.23 73 1014.7
20260507123011 11 266 6.4 16.1 0.00 0.23 0.23 74 1014.6
20260507122012 11 250 12.9 25.7 0.00 0.23 0.23 73 1014.5
20260507121011 12 267 8.0 20.9 0.00 0.23 0.23 72 1014.4
20260507120011 11 269 9.7 20.9 0.00 0.23 0.23 73 1014.3
20260507115012 11 230 9.7 22.5 0.00 0.23 0.23 75 1014.3
20260507114011 11 241 8.0 20.9 0.00 0.23 0.23 73 1014.3
20260507113011 11 250 11.3 24.1 0.00 0.23 0.23 73 1014.3
20260507112012 12 285 8.0 22.5 0.00 0.23 0.23 72 1014.1
20260507111011 12 219 8.0 24.1 0.00 0.23 0.23 75 1014.0
20260507110011 12 192 8.0 22.5 0.00 0.23 0.23 74 1013.9
20260507105011 12 215 8.0 17.7 0.00 0.23 0.23 75 1013.9
20260507104010 12 199 8.0 19.3 0.00 0.23 0.23 76 1013.9
20260507103010 12 184 8.0 17.7 0.00 0.23 0.23 80 1013.8
20260507102010 11 229 8.0 17.7 0.03 0.23 0.23 80 1013.7
20260507101011 11 229 8.0 17.7 0.03 0.23 0.23 80 1013.7
20260507100012 11 226 6.4 17.7 0.05 0.23 0.23 83 1013.7
20260507095011 11 250 4.8 17.7 0.05 0.23 0.23 87 1013.6
20260507094011 10 248 6.4 17.7 0.05 0.23 0.23 84 1013.4
20260507093010 10 206 6.4 17.7 0.05 0.23 0.23 84 1013.4
20260507092011 10 255 6.4 14.5 0.03 0.20 0.20 85 1013.3
20260507091011 10 254 4.8 11.3 0.05 0.20 0.20 85 1013.1
20260507090010 11 233 3.2 16.1 0.03 0.18 0.18 87 1013.0
20260507085010 11 202 6.4 17.7 0.05 0.18 0.18 85 1012.7
20260507084010 11 280 6.4 16.1 0.05 0.18 0.18 90 1012.6
20260507083010 10 235 8.0 17.7 0.05 0.18 0.18 89 1012.5
20260507082010 10 228 6.4 14.5 0.05 0.15 0.15 90 1012.4
20260507081010 10 283 3.2 11.3 0.05 0.15 0.15 90 1012.2
20260507080011 10 283 3.2 11.3 0.05 0.15 0.15 90 1012.2
20260507075009 10 261 3.2 8.0 0.05 0.15 0.15 89 1012.1
20260507074010 10 261 4.8 12.9 0.05 0.15 0.15 88 1012.0
20260507073009 10 252 3.2 9.7 0.05 0.13 0.13 88 1011.7
20260507072010 10 252 3.2 9.7 0.05 0.13 0.13 88 1011.7
20260507071010 10 234 4.8 12.9 0.05 0.13 0.13 88 1011.6
20260507070012 10 234 3.2 8.0 0.03 0.10 0.10 89 1011.5
20260507065011 10 250 4.8 12.9 0.03 0.10 0.10 88 1011.5
20260507064009 10 215 4.8 12.9 0.03 0.10 0.10 88 1011.4
20260507063011 10 209 3.2 11.3 0.00 0.08 0.08 88 1011.3
20260507062010 10 244 4.8 11.3 0.00 0.08 0.08 88 1011.2
20260507061010 10 246 4.8 12.9 0.00 0.08 0.08 89 1011.1
20260507060010 10 248 3.2 11.3 0.00 0.08 0.08 89 1011.0
20260507055009 10 273 3.2 12.9 0.00 0.08 0.08 89 1010.8
20260507054010 10 223 3.2 14.5 0.00 0.08 0.08 89 1010.8
20260507053009 10 234 6.4 19.3 0.00 0.08 0.08 89 1010.7
20260507052010 10 194 3.2 14.5 0.00 0.08 0.08 89 1010.7
20260507051009 10 197 4.8 11.3 0.00 0.08 0.08 89 1010.5
20260507050010 10 196 1.6 8.0 0.00 0.08 0.08 89 1010.4
20260507045010 10 197 3.2 9.7 0.00 0.08 0.08 89 1010.3
20260507044009 10 202 3.2 8.0 0.00 0.08 0.08 89 1010.3
20260507043009 10 200 3.2 8.0 0.00 0.08 0.08 89 1010.2
20260507042010 10 200 1.6 8.0 0.00 0.08 0.08 89 1010.1
20260507041010 10 199 3.2 11.3 0.00 0.08 0.08 89 1009.9
20260507040010 10 201 1.6 9.7 0.00 0.08 0.08 89 1009.9
20260507035010 10 223 3.2 12.9 0.00 0.08 0.08 90 1009.8
20260507034008 10 208 3.2 9.7 0.00 0.08 0.08 90 1009.7
20260507033008 10 187 1.6 9.7 0.00 0.08 0.08 90 1009.6
20260507032008 10 213 1.6 6.4 0.00 0.08 0.08 90 1009.5
20260507031008 10 213 1.6 6.4 0.00 0.08 0.08 90 1009.5
20260507030009 10 213 1.6 8.0 0.00 0.08 0.08 90 1009.4
20260507025009 10 206 1.6 6.4 0.00 0.08 0.08 90 1009.4
20260507024009 10 202 3.2 6.4 0.00 0.08 0.08 90 1009.4
20260507023013 10 200 3.2 9.7 0.00 0.08 0.08 90 1009.3
20260507022013 10 211 3.2 9.7 0.00 0.08 0.08 90 1009.3
20260507021013 10 200 3.2 12.9 0.00 0.08 0.08 90 1009.2
20260507020013 10 222 3.2 9.7 0.03 0.08 0.08 90 1009.1
20260507015013 10 220 3.2 9.7 0.03 0.08 0.08 90 1009.1
20260507014013 10 206 3.2 9.7 0.03 0.08 0.08 90 1009.1
20260507013013 10 217 3.2 8.0 0.03 0.08 0.08 90 1008.9
20260507012013 10 223 3.2 9.7 0.03 0.08 0.08 90 1008.9
20260507011013 10 209 4.8 17.7 0.03 0.08 0.08 90 1008.9
20260507010013 10 198 3.2 14.5 0.03 0.05 0.05 90 1008.9
20260507005013 10 191 4.8 14.5 0.03 0.05 0.05 90 1008.9
20260507004012 10 229 4.8 17.7 0.03 0.05 0.05 90 1009.0
20260507003012 10 224 6.4 17.7 0.03 0.05 0.05 90 1009.0
20260507002012 11 215 4.8 20.9 0.03 0.05 0.05 90 1008.9
20260507001013 11 211 6.4 20.9 0.03 0.05 0.05 90 1008.8
20260507000013 11 190 4.8 14.5 0.00 0.05 0.05 90 1008.8
20260506235012 11 194 4.8 12.9 0.03 0.05 0.05 90 1008.8
20260506234012 11 246 3.2 9.7 0.03 0.05 0.05 90 1008.7
20260506233012 11 225 4.8 11.3 0.03 0.05 0.05 90 1008.7
20260506232012 11 200 3.2 11.3 0.03 0.05 0.05 90 1008.8
20260506231012 11 229 3.2 9.7 0.03 0.05 0.05 89 1008.8
20260506230012 11 195 3.2 9.7 0.03 0.05 0.05 89 1008.7
20260506225012 11 181 4.8 11.3 0.00 0.03 0.03 89 1008.5
20260506224012 11 196 4.8 11.3 0.00 0.03 0.03 89 1008.4
20260506223012 11 237 4.8 16.1 0.00 0.03 0.03 89 1008.3
20260506222012 11 237 3.2 9.7 0.00 0.03 0.03 89 1008.2
20260506221012 11 234 1.6 9.7 0.00 0.03 0.03 89 1008.0
20260506220012 11 219 3.2 12.9 0.00 0.03 0.03 89 1008.0